Regional Weather Roundup
Issued by NWS

Home | Current Version | Previous Version | Graphics & Text | Print | Product List | Glossary On
Versions: 1 2 3 4 5 6 7 8 9 10 11 12 13 14 15 16 17 18 19 20 21 22 23 24 25 26 27 28 29 30 31 32 33 34 35 36 37 38 39 40 41 42 43 44 45 46 47 48 49 50
000
ASUS45 KTFX 240019
RWRMT
MONTANA HOURLY WEATHER ROUNDUP
NATIONAL WEATHER SERVICE GREAT FALLS MT
519 PM MST SUN NOV 23 2014

NOTE: "FAIR" INDICATES FEW OR NO CLOUDS BELOW 12000 FEET WITH NO
SIGNIFICANT WEATHER AND/OR OBSTRUCTIONS TO VISIBILITY.

* THESE STATIONS ARE NOT UNDER NWS QUALITY CONTROL. THEY DO NOT
   REPORT WEATHER SUCH AS PRECIPITATION OR FOG.

MTZ001>007-043-240100-
WEST OF THE DIVIDE
CITY           SKY/WX    TMP DP  RH WIND       PRES   REMARKS
KALISPELL      LGT SNOW  34  32  92 S13       29.90F WCI  25
MISSOULA       MOCLDY    39  28  65 S10       29.97F WCI  32
BUTTE          CLOUDY    32  18  56 CALM      29.96F
MULLAN PASS    LGT SNOW  27  25  92 W9G25     29.87F VSB 1 3/4 WCI  18
* ESSEX        N/A       31  29  92 N/A        N/A
* EUREKA APT   CLOUDY    37  30  76 SE13G18   29.88S WCI  29
* HAMILTON APT CLOUDY    37  27  67 S21       29.99F WCI  26
* LIBBY APT    CLOUDY    32  30  92 CALM      29.91R VSB 2
* LINCOLN      N/A       32  26  79 SW3G11     N/A
* LOOKOUT PASS N/A       30  30 100 VRB6       N/A   WCI  24
* POLSON       N/A       33  31  92 S2         N/A
* RONAN APT    CLOUDY    36  30  79 N/A        N/A
* SEELEY LAKE  N/A       31  29  92 NE2        N/A
* THOMP F APT  CLOUDY    28  11  49 W4G13      N/A
* YAAK HILL    N/A       33  31  92 N/A        N/A
$$

MTZ008-052>055-240100-
SOUTHWEST MONTANA
CITY           SKY/WX    TMP DP  RH WIND       PRES   REMARKS
BOZEMAN        CLOUDY    36  19  50 SW8       29.95F WCI  30
DILLON         CLOUDY    34  19  54 S15       29.99S WCI  24
* W YELLOWSTON MOCLDY    25  16  69 SW5G11     N/A   WCI  19
* ENNIS APT    CLOUDY    34  16  48 SE7        N/A   WCI  28
* THREE FORKS  CLOUDY    39  19  45 N/A        N/A
* BOULDER HILL N/A       33  12  42 S8G14      N/A   WCI  26
* MONIDA PASS  N/A       26  12  55 SW6G12     N/A   WCI  19
* RAYNOLDS PAS N/A       26   2  35 NE2        N/A
* WHITEHALL    N/A       39  16  39 SW13G27    N/A   WCI  31
* WISE RIVER   N/A       31  17  56 W14G31     N/A   WCI  21
$$

MTZ009>010-012-014-046-048-049-054-240100-
EAST SLOPES AND CENTRAL MONTANA
CITY           SKY/WX    TMP DP  RH WIND       PRES   REMARKS
CUT BANK       CLOUDY    36  23  59 W28G35    29.75F WCI  23
GREAT FALLS    CLOUDY    37  21  52 SW17      29.83R WCI  27
HELENA         CLOUDY    39  19  45 W15G20    29.90F WCI  31
MALMSTROM AFB  MOCLDY    39  21  48 SW17G28   29.85S WCI  30
* CONRAD       CLOUDY    37  23  57 SE6        N/A   WCI  32
* DEARBORN     N/A       41  21  45 S11G16     N/A
* EAST GLACIER N/A       30  22  72 W40G50     N/A   WCI  13
* MONARCH      N/A       32  13  45 SW20G29    N/A   WCI  20
* PENDROY      N/A       38  17  42 NW14G23    N/A   WCI  30
* ROGERS PASS  N/A       28  23  81 SE21G33    N/A   WCI  14
* SAINT MARY   N/A       33  24  70 SW15G29    N/A   WCI  23
* SWEET GRASS  N/A       37  21  52 W19G24     N/A   WCI  27
* WHITE SULPH  N/A       33  16  50 S5G11      N/A   WCI  28
$$

MTZ011-013-016-021-035-040-045-047-050-051-240100-
NORTH CENTRAL MONTANA
CITY           SKY/WX    TMP DP  RH WIND       PRES   REMARKS
HAVRE          MOCLDY    34  27  76 SW13      29.79F WCI  25
LEWISTOWN      PTCLDY    36  18  48 W9        29.84F WCI  29
* N BAR RANCH  CLEAR     32  12  43 NW9G20    29.81F WCI  24
* CHINOOK      PTCLDY    30  25  82 CALM      29.81F
* FORT BENTON  CLOUDY    39  19  45 SW3       29.84F
* CHESTER      N/A       36  22  57 SW4        N/A
* DENTON       N/A       35  14  42 W10        N/A   WCI  27
* GEYSER       N/A       36  15  42 W15G23     N/A   WCI  27
* JUDITH GAP   N/A       31  11  43 W9         N/A   WCI  23
* LOMA         N/A       40  23  51 W6         N/A   WCI  36
$$

MTZ017>020-022>027-061-062-240100-
NORTHEAST MONTANA
CITY           SKY/WX    TMP DP  RH WIND       PRES   REMARKS
GLASGOW        PTCLDY    19  16  88 NW6       29.83S WCI  11
GLENDIVE       MOCLDY    21  16  81 NW13G20   29.82R WCI   8
JORDAN         CLEAR     32  23  69 NW12      29.81S WCI  23
SIDNEY         PTCLDY    23  16  74 NW10G17   29.83R WCI  13
WOLF POINT     CLOUDY    27  16  63 NW9       29.85R WCI  18
* BEAVER HILL  N/A       22  15  74 NW17G24    N/A   WCI   8
* CIRCLE       N/A       26  21  81 N/A        N/A
* LINDSAY DVD  N/A       19  17  92 NW17G23    N/A   WCI   4
* NAVAJO       N/A       19  14  81 NW17       N/A   WCI   4
* PLENTYWOOD A PTCLDY    19  14  81 NW16      29.79S WCI   4
* POPLAR APT   CLEAR     25  18  75 N/A       29.84R
* SACO         N/A       26  19  75 NE2        N/A
$$

MTZ028>042-056>058-240100-
SOUTHCENTRAL AND SOUTHEAST MONTANA
CITY           SKY/WX    TMP DP  RH WIND       PRES   REMARKS
BAKER          CLOUDY    25  18  75 NW18      29.78R WCI  11
BILLINGS       FAIR      39  14  36 NW16G26   29.86S WCI  30
LIVINGSTON     MOCLDY    37  12  36 W23       29.90S WCI  26
MILES CITY     PTCLDY    34  25  70 NW12      29.81R WCI  25
* BIG TIMBER A PTCLDY    36  16  44 W20G26    29.86F WCI  25
* FORSYTH APT  CLEAR     37  21  52 NW12G18   29.82R WCI  29
* LAUREL APT   CLEAR     39  12  33 W10G16     N/A   WCI  32
* ALZADA       N/A       32  23  69 W14        N/A   WCI  22
* HYSHAM       N/A       38  14  37 W8G15      N/A   WCI  32
* LAME DEER    N/A       32  17  54 NW7G12     N/A   WCI  25
* REED POINT   N/A       39  16  39 W16G27     N/A   WCI  30
* ROSCOE HILL  N/A       32   1  26 W7G14      N/A   WCI  25
$$

REGIONAL REPORTS...DAKOTAS
CITY           SKY/WX    TMP DP  RH WIND       PRES   REMARKS
WILLISTON      CLOUDY    19  12  74 NW16G23   29.80R WCI   4
DICKINSON      LGT SNOW  23  16  74 NW25G35   29.70R WCI   7
BEACH          CLOUDY    23  18  81 NW17      29.77S WCI   9
CROSBY         CLEAR     14  10  84 NW10      29.81R WCI   1
TIOGA          CLOUDY    16  14  92 NW24G33   29.77R WCI  -2
BISMARCK       CLOUDY    21  14  74 NW21G30   29.68S WCI   5
GRAND FORKS    LGT SNOW  21  19  92 NW16      29.55R WCI   7
FARGO          CLOUDY    30  21  69 W14       29.50R WCI  19
BUFFALO SD     PTCLDY    27  19  72 NW22G32   29.67R WCI  13
RAPID CITY     PTCLDY    34  19  54 NW23G32   29.72R WCI  22
$$

REGIONAL REPORTS...WYOMING/IDAHO/WASHINGTON
CITY           SKY/WX    TMP DP  RH WIND       PRES   REMARKS
SHERIDAN       PTCLDY    36  18  48 NW13      29.85R WCI  27
CODY           CLEAR     36   9  32 W10G17    29.87F WCI  29
YELLOWSTONE LA PTCLDY    19  10  68 W7        29.99R WCI  10
SALMON         CLOUDY    37  19  48 W7        30.06F WCI  32
MULLAN PASS    LGT SNOW  27  25  92 W9G25     29.87S VSB 1 3/4 WCI  18
SAND POINT     LGT RAIN  36  36 100 SW10      29.95F WCI  29
SPOKANE        MOCLDY    39  36  89 SW22      29.97R WCI  29
$$

REGIONAL REPORTS...ALBERTA
CITY           SKY/WX    TMP DP  RH WIND       PRES   REMARKS
CALGARY        CLOUDY    39  16  39 W8        29.66R WCI  33
LETHBRIDGE     MOCLDY    37  23  57 W20       29.71F WCI  27
MEDICINE HAT   CLOUDY    30  27  89 SW7       29.74F WCI  23
EDMONTON       CLOUDY    25  19  78 S6        29.70R WCI  18
WATERTON GATE  N/A       32  27  82 SW23G33    N/A   WCI  19
CARDSTON       N/A       39  21  48 W13G23     N/A   WCI  31
MILK RIVER     N/A       37  23  57 W12        N/A   WCI  29
$$

REGIONAL REPORTS...SASKATCHEWAN
CITY           SKY/WX    TMP DP  RH WIND       PRES   REMARKS
SWIFT CURRENT  CLEAR     14  12  92 NW3       29.78R
REGINA         MOCLDY    12   9  88 NW12      29.83S WCI  -2
VAL MARIE      N/A       18  14  84 NE7        N/A   WCI   9
ASSINIBOIA     N/A       19  14  81 NW10       N/A   WCI   8
CORONACH       N/A       18  14  84 NW12       N/A   WCI   5

$$



USA.gov is the U.S. government's official web portal to all federal, state and local government web resources and services.